カタログに戻る

RIDU-SAT 1

運用中科学SSO
NORAD 64532·PAYLOAD·🇮🇩 Indonesia
この衛星名は、まだ公式ソースで確認されていません。

打ち上げ Jun 23, 2025 から Vandenberg Space Force Base

Loading…

次のパス (今後24時間)

TLE

最新Source: Space-Track

元期: Sep 14, 2026, 13:48 UTC

1 64532U 25135E   26257.57507280  .00009249  00000-0  34247-3 0  9999
2 64532  97.4816  13.9584 0003784 194.0982 166.0152 15.27878265 68569

AllMySatでRIDU-SAT 1をリアルタイム追跡

Download on the App Store